Temperature
16 16 16 17 17 18 19 22 23 22 22 21 21 21 20 19 18 16 14 14 13 13 14 14 14 14 14 14 14 14 14 14 14 14 13 13 13 13 13 13 13 13 13 13 14 14 14 14 14
16 16 16 17 17 18 20 22 22 21 21 20 20 21 21 18 16 14 13 13 13 13 13 14 14 14 14 14 14 14 14 14 14 13 13 13 13 13 13 13 13 13 13 13 13 14 14 14 14
16 16 17 18 18 19 21 21 21 20 20 20 20 20 19 17 15 14 13 13 13 13 13 13 13 13 13 13 13 13 13 13 13 13 13 13 13 13 13 13 13 13 13 13 13 13 13 14 14
15 16 18 18 19 20 21 21 20 20 20 20 20 19 17 15 15 14 13 13 13 12 13 13 13 13 13 13 13 13 13 13 13 13 13 13 13 13 13 13 13 13 13 13 13 13 13 14 14
15 17 17 17 19 20 20 20 20 20 20 19 19 18 15 14 14 14 13 13 13 12 12 13 13 13 13 13 13 13 13 13 13 13 12 12 12 13 13 13 13 13 13 13 13 13 13 13 13
16 18 17 17 19 20 20 20 20 20 19 19 18 18 15 14 14 13 13 13 12 12 12 12 12 12 12 12 12 12 12 12 12 12 12 12 12 12 12 13 13 12 12 12 13 13 13 13 13
16 16 17 18 19 19 19 19 19 18 18 18 18 17 15 13 13 13 13 12 12 12 12 12 12 12 12 12 12 12 12 12 12 12 12 12 12 12 12 12 12 12 12 12 12 12 12 12 12
15 16 17 18 18 18 18 18 17 17 17 16 16 16 14 13 13 12 12 12 12 11 11 11 11 11 11 11 11 11 11 11 11 11 12 12 12 12 12 12 12 12 12 12 12 12 12 12 12
15 15 16 17 18 17 17 17 16 16 16 15 15 14 13 13 12 12 11 11 11 11 11 11 11 11 11 11 11 11 11 11 11 11 11 11 11 11 11 11 11 12 12 11 11 11 11 11 12
15 14 15 16 16 16 16 16 16 15 15 15 14 14 13 12 12 11 11 11 11 11 11 11 11 10 10 10 10 10 11 11 11 11 11 11 11 11 11 11 11 11 11 11 11 11 11 11 11
15 14 15 15 15 15 15 15 15 15 14 14 14 13 13 12 11 11 11 11 11 11 11 10 10 10 10 10 10 10 10 10 10 10 10 10 10 10 10 11 11 10 11 11 11 10 10 10 10
14 14 15 15 14 14 14 14 14 14 14 14 13 13 12 12 11 11 11 10 10 10 10 10 10 10 10 10 10 10 10 10 10 10 10 10 10 10 10 10 10 10 10 10 10 10 10 10 10
14 14 14 13 13 13 13 13 13 13 13 13 13 12 12 11 11 11 10 10 10 10 10 9 9 9 9 9 9 9 9 9 9 9 9 9 9 9 10 10 10 10 10 9 10 9 9 9 10
13 13 13 13 13 13 12 12 12 12 13 12 12 12 11 11 11 10 10 10 10 9 9 9 9 9 9 9 9 9 9 9 9 9 9 9 9 9 9 9 9 9 9 9 9 9 9 9 9
13 12 12 13 13 13 12 11 12 12 12 12 12 11 11 11 10 10 10 9 9 9 9 9 9 9 9 9 8 8 9 9 9 9 9 9 9 9 9 9 9 9 9 9 9 9 9 8 9
13 12 12 13 13 12 11 10 12 13 12 12 12 11 11 10 10 10 9 9 9 9 9 9 8 8 8 8 8 8 8 8 8 8 8 8 8 8 8 8 8 8 8 8 8 8 8 8 8
12 12 12 13 13 13 11 10 12 12 12 12 12 11 11 10 10 9 9 9 9 8 8 8 8 8 8 8 8 8 8 8 8 8 8 8 8 8 8 8 8 8 8 8 8 8 8 8 8
11 12 12 12 12 12 11 10 11 12 12 12 11 11 10 10 9 9 9 8 8 8 8 8 8 7 7 7 7 7 7 7 7 7 7 7 7 8 7 7 7 7 7 7 7 7 7 7 7
12 11 11 12 12 11 10 11 11 11 11 11 11 11 10 10 9 9 8 8 8 7 7 7 7 7 7 7 7 7 7 7 7 7 7 7 7 7 7 7 7 7 6 6 6 6 6 7 6
11 11 11 11 12 11 10 10 11 11 11 11 11 10 10 10 9 8 8 7 7 7 7 7 7 6 6 6 6 6 6 6 6 6 6 6 6 6 6 6 6 6 6 6 6 6 6 6 6
11 10 10 10 10 10 9 9 10 11 11 11 11 10 10 9 9 8 7 7 7 6 6 6 6 6 6 6 6 6 6 6 6 6 6 6 6 6 6 6 6 6 6 6 5 5 5 5 5
10 10 10 9 8 8 9 7 10 10 10 10 10 10 9 9 8 8 7 6 6 6 6 6 6 6 5 6 6 6 6 5 5 5 5 5 5 5 5 5 5 5 5 5 5 5 5 5 5
9 9 9 9 8 7 8 7 9 10 9 9 9 9 9 9 8 7 7 6 6 6 6 6 5 5 5 5 5 5 5 5 5 5 4 5 5 5 5 5 5 5 5 5 5 4 5 4 4
9 9 9 8 7 6 8 8 8 9 9 9 9 9 9 8 8 7 6 6 5 5 5 5 5 5 5 5 5 5 4 4 4 4 4 4 4 4 4 4 4 4 4 4 4 4 4 4 4
8 7 7 7 6 7 9 9 8 10 10 9 9 9 9 8 7 7 6 5 5 5 5 5 4 4 4 4 4 4 4 4 4 4 4 4 4 4 4 4 4 4 4 4 4 4 4 4 4
8 8 7 7 7 8 8 8 8 10 10 10 9 9 9 8 7 6 6 5 5 4 4 4 4 4 4 4 4 4 4 4 4 3 3 3 3 3 3 3 4 4 4 4 4 3 3 3 3
7 7 8 7 6 6 7 8 9 9 9 8 8 8 8 7 7 6 5 5 5 4 4 4 4 4 4 4 3 4 3 3 3 3 3 3 3 3 3 3 3 3 3 3 3 3 3 3 3
7 7 6 6 6 6 8 9 8 8 8 7 7 7 8 7 6 6 5 5 4 4 4 3 3 3 3 3 3 3 3 3 3 3 3 3 3 3 3 3 3 3 3 3 3 2 2 2 2
6 6 6 6 6 6 6 8 9 8 8 7 7 7 7 7 6 5 5 4 4 3 3 3 3 3 3 3 3 3 3 3 2 2 2 2 2 2 3 3 3 3 3 2 2 2 2 2 2
7 6 6 5 5 6 6 7 9 8 8 7 7 7 7 6 6 5 4 4 4 3 3 3 3 3 3 3 2 2 2 2 2 2 2 2 2 2 2 2 2 2 2 2 2 2 1 1 1
Wind_Speed
12 11 7 3 3 5 8 7 3 1 3 4 6 5 5 6 6 7 5 5 9 9 11 11 9 9 9 8 8 8 8 8 7 8 8 8 8 8 8 8 8 7 8 8 8 8 7 7 7
11 8 4 4 4 6 7 5 3 3 5 4 3 2 2 6 8 9 5 6 9 10 11 10 9 9 8 8 8 7 7 7 7 7 7 7 7 7 7 8 8 7 7 7 7 7 7 7 7
9 7 4 4 5 6 4 1 5 6 5 2 2 3 4 5 7 6 6 6 8 9 11 10 10 9 8 7 7 7 7 6 6 6 6 6 6 6 7 7 7 7 6 6 6 6 6 6 6
4 3 4 5 9 7 2 2 5 5 4 2 2 4 5 6 5 7 7 6 8 9 11 11 9 8 7 6 6 6 6 6 5 5 5 5 6 5 6 6 6 6 5 5 6 5 5 5 5
3 4 5 7 9 5 1 4 3 2 3 3 2 3 6 6 9 9 6 5 7 8 10 10 9 8 7 6 5 5 5 5 5 4 4 5 5 5 5 5 5 5 4 4 5 5 5 4 4
4 4 5 8 7 4 2 2 1 1 1 3 1 1 5 6 8 7 6 5 6 7 9 9 8 7 6 5 4 4 4 4 4 4 4 4 4 4 4 4 4 4 5 3 3 4 4 4 4
3 4 6 7 6 3 1 2 0 1 1 1 1 1 6 6 7 6 5 5 6 7 7 7 6 5 5 5 4 3 2 3 3 3 3 3 3 3 4 4 4 4 5 4 3 3 3 3 3
4 4 6 6 6 3 2 3 3 4 2 3 3 1 4 6 7 6 4 4 5 6 5 5 4 4 3 3 3 2 2 2 2 2 2 2 2 2 2 3 3 3 4 4 3 3 3 3 3
4 4 5 4 4 0 3 1 2 2 2 1 1 3 5 8 7 5 4 3 4 4 4 3 3 3 2 2 2 2 1 1 0 1 1 2 1 1 1 1 2 2 3 4 4 3 4 4 4
2 3 3 4 5 3 2 1 0 1 2 1 1 3 6 7 6 5 4 3 3 3 2 3 2 2 2 1 2 2 1 1 1 1 0 1 1 1 1 0 1 2 3 4 4 4 4 4 4
2 3 2 3 5 4 2 1 1 2 3 4 3 4 5 5 5 4 4 3 3 3 2 2 2 1 1 1 1 1 1 1 1 0 0 1 0 1 0 0 1 1 2 3 4 4 4 3 3
3 4 3 2 4 3 3 2 3 4 4 3 2 1 3 5 5 5 4 2 2 3 2 2 1 1 0 0 0 1 0 0 0 0 1 0 1 1 1 0 1 1 1 2 2 3 3 3 3
5 4 2 2 2 3 4 4 5 6 5 2 0 1 3 4 4 4 3 3 2 3 3 2 1 1 0 1 1 1 0 0 0 1 1 1 0 1 1 1 1 2 2 2 2 2 3 2 3
2 2 3 3 4 4 4 6 5 6 4 3 2 3 4 4 4 4 3 3 3 2 2 2 1 1 0 1 1 1 0 1 1 1 1 2 1 1 1 1 1 2 2 3 3 3 3 2 2
2 4 6 6 6 3 2 6 7 7 4 4 4 4 5 4 3 4 3 3 3 2 3 2 1 1 0 1 1 1 1 1 1 1 1 1 1 1 1 1 1 2 3 3 3 3 2 2 2
5 5 5 4 6 5 4 7 4 5 6 6 5 5 5 5 4 3 3 3 2 2 2 3 2 1 1 1 1 1 1 1 1 1 1 1 2 2 2 1 1 2 3 2 2 2 2 2 2
5 5 6 3 5 5 6 6 3 3 5 6 6 5 4 4 4 3 3 3 3 2 2 2 2 2 1 1 1 1 1 1 1 1 1 1 2 2 2 1 2 2 2 2 2 2 2 2 3
4 5 6 5 3 4 6 9 7 5 5 6 5 5 4 4 4 3 2 2 3 2 2 2 2 2 1 1 1 1 1 1 1 0 1 2 2 2 2 2 2 2 2 2 2 2 2 2 2
6 8 9 8 3 4 8 11 10 7 7 7 6 5 4 4 3 3 3 2 2 2 2 2 2 2 1 1 1 1 1 1 1 1 1 2 2 2 2 2 2 2 2 2 2 2 2 2 2
7 9 9 7 2 5 8 12 10 8 8 6 5 5 4 3 3 4 4 3 3 2 1 1 1 2 1 1 1 1 1 1 1 1 1 2 2 3 3 2 2 2 2 2 2 2 1 2 1
8 7 7 7 7 7 7 9 9 6 6 6 5 4 4 4 3 4 4 3 2 2 2 2 2 2 2 1 1 1 1 1 1 1 1 2 2 3 2 2 2 2 2 2 2 2 2 2 2
7 3 5 6 6 5 3 6 6 6 6 6 5 4 3 3 3 3 3 3 3 2 2 2 2 2 2 1 1 2 2 2 2 2 1 2 2 2 2 2 2 2 2 2 2 2 2 2 3
4 4 6 7 7 7 6 6 6 4 5 6 5 4 3 3 3 3 3 3 2 2 2 1 1 1 1 1 2 2 2 2 1 1 1 2 1 2 2 2 2 2 2 2 2 2 2 2 3
4 4 6 5 3 6 7 6 5 4 4 3 4 4 4 3 2 2 3 3 2 2 1 1 1 1 1 1 1 1 2 2 1 1 2 2 2 2 3 3 2 2 2 2 3 3 3 3 3
3 1 1 2 4 6 3 4 6 3 2 3 4 3 3 2 3 3 2 3 2 2 2 1 1 1 1 0 1 1 2 2 2 2 2 2 2 2 3 3 2 2 2 2 2 3 3 3 3
4 3 2 3 4 4 3 6 4 3 3 2 2 3 3 2 3 3 3 3 3 3 3 2 2 2 1 1 1 2 2 1 2 2 2 2 2 2 3 3 3 2 2 2 2 2 3 3 3
3 3 2 3 5 5 5 4 3 3 2 2 1 2 2 2 3 3 3 3 3 3 3 3 2 1 1 1 1 1 2 2 2 2 2 2 2 2 2 3 2 3 2 2 2 2 2 2 2
3 1 1 2 3 5 6 5 4 4 4 2 2 1 1 2 3 3 3 3 3 3 3 2 2 2 1 1 1 1 2 2 2 2 2 3 3 3 3 3 3 3 3 2 2 1 2 2 2
5 3 4 3 4 4 5 4 1 2 3 3 2 2 2 2 3 3 2 2 3 3 3 3 2 2 2 2 1 1 2 2 2 2 3 3 3 3 3 3 3 3 3 2 2 2 3 3 2
4 5 5 3 5 4 4 6 1 2 1 1 0 1 2 2 2 2 2 2 2 2 3 3 3 2 2 2 1 2 2 1 2 2 2 2 2 3 3 3 3 3 3 2 3 3 3 3 3
Wind_Direction
299 276 255 249 238 231 238 241 249 89 65 48 29 14 28 31 33 104 139 104 106 113 116 116 109 101 95 88 79 73 69 62 55 51 52 50 48 43 43 42 44 44 48 51 50 48 45 47 46
288 272 248 236 238 234 235 226 218 77 83 80 59 10 52 76 84 105 115 105 108 106 107 112 110 103 95 88 79 72 66 60 54 51 49 45 42 40 39 40 37 38 43 45 45 46 48 48 47
274 263 249 231 232 239 251 78 94 89 88 98 93 25 29 70 88 102 114 120 111 106 106 111 112 104 98 90 81 71 64 56 49 49 47 42 38 37 40 35 32 30 36 39 35 43 48 46 42
274 234 242 243 246 254 270 58 91 106 119 131 133 112 84 52 73 100 114 123 115 109 105 112 117 109 102 93 83 74 65 55 49 49 47 42 36 36 38 34 31 27 28 32 32 36 37 39 35
248 245 233 236 244 259 326 59 71 141 156 158 186 130 102 76 87 102 114 117 112 110 106 115 117 113 106 97 87 74 62 57 54 49 46 40 35 35 33 31 26 22 24 30 27 29 22 22 22
251 244 241 238 241 231 191 103 121 243 172 133 161 160 109 114 104 108 110 103 104 105 105 117 121 119 114 103 91 76 63 57 54 44 42 34 29 33 36 31 26 23 20 17 16 17 9 2 5
269 263 256 262 262 235 166 85 119 272 246 99 16 133 125 118 107 109 108 102 95 101 103 111 122 129 129 119 102 90 69 53 44 35 35 28 22 25 32 26 21 19 9 1 0 355 347 342 341
301 288 262 258 260 255 85 81 29 1 355 24 25 354 112 121 114 113 108 98 92 96 97 106 108 116 122 124 127 113 99 66 29 22 26 21 15 16 24 21 18 9 359 354 341 335 327 317 316
284 263 262 282 286 105 95 97 72 31 356 26 39 52 91 119 118 122 124 114 106 95 93 95 97 84 97 126 143 133 132 125 20 349 349 2 359 8 35 15 12 353 346 341 329 322 314 305 295
243 254 279 342 340 0 68 36 54 244 235 229 160 105 112 128 141 161 168 168 147 129 111 92 82 87 82 119 123 148 177 182 215 221 178 345 345 351 351 294 313 317 322 318 306 301 301 302 288
239 259 293 329 351 3 355 328 321 259 256 244 208 157 142 151 167 188 197 181 154 126 102 98 90 81 114 104 140 169 186 206 237 252 291 275 353 325 326 303 298 290 311 313 307 295 293 297 302
253 266 289 322 360 348 309 293 284 253 265 349 15 100 158 182 191 198 201 179 147 134 132 114 98 72 353 16 228 175 158 222 196 167 280 326 49 331 328 337 295 299 313 307 305 295 290 294 296
243 261 295 311 297 281 282 267 270 266 261 277 334 160 194 208 212 209 187 170 164 158 153 149 142 139 359 291 245 199 206 268 217 202 259 298 323 270 302 300 300 312 318 308 303 308 303 289 291
300 299 278 263 249 247 259 265 251 253 236 218 204 206 216 220 214 212 193 185 186 176 154 156 157 168 217 291 264 232 208 230 210 198 256 288 298 303 300 285 305 313 306 296 296 294 292 271 274
269 263 256 235 224 218 259 265 236 232 216 212 218 217 215 223 217 214 194 190 192 183 163 162 173 152 240 273 259 253 237 224 194 194 237 289 307 292 300 296 289 307 302 301 306 299 304 281 282
239 242 247 208 196 184 207 258 243 197 200 217 227 226 219 214 212 201 188 188 187 183 173 163 182 182 225 268 283 285 281 256 243 194 204 256 286 288 294 290 285 296 300 304 288 286 298 290 292
223 249 255 237 195 195 208 252 252 198 209 231 232 227 216 207 201 191 179 172 177 180 178 163 165 181 210 250 268 264 263 259 243 208 193 224 251 271 282 285 284 294 300 290 289 300 301 296 300
269 279 280 277 223 228 241 255 260 247 235 238 234 228 211 201 198 177 172 171 172 167 167 171 163 174 195 213 238 266 250 265 278 259 231 232 236 257 274 278 281 282 272 274 275 275 282 274 275
285 285 283 284 286 263 259 265 260 250 241 242 235 223 219 214 187 168 169 162 156 157 159 182 175 183 182 201 228 244 242 252 266 261 265 249 244 256 264 277 282 276 256 254 255 259 276 288 287
272 278 285 293 301 280 274 273 264 238 231 230 224 217 222 224 199 184 179 171 168 162 161 186 198 190 196 209 221 239 239 243 239 253 280 269 260 254 256 253 261 269 260 256 250 260 254 266 256
262 261 279 293 305 268 275 280 247 229 212 213 213 214 216 213 210 196 182 178 169 178 194 208 216 203 206 208 187 250 274 285 256 261 257 266 265 263 262 258 264 264 252 231 223 231 234 250 258
265 289 288 289 292 278 240 284 254 214 212 213 209 205 208 215 205 187 178 182 181 193 199 202 198 194 205 195 187 210 227 233 246 239 247 270 258 263 261 272 274 268 250 222 227 219 238 245 247
275 318 283 269 269 279 245 248 272 205 217 217 196 186 192 202 193 180 178 188 180 169 178 197 181 191 218 215 206 227 245 245 260 258 255 274 272 249 266 270 267 264 246 223 231 237 248 252 243
273 281 267 246 256 264 232 221 272 225 211 189 179 174 176 182 178 164 169 167 153 137 153 179 173 191 215 234 222 234 239 232 238 257 259 276 275 259 249 258 253 258 245 223 227 232 239 255 256
244 289 309 260 227 244 212 223 242 238 157 170 180 181 169 163 167 166 166 168 160 161 176 184 187 215 225 259 259 267 254 225 228 250 247 266 269 276 260 261 257 256 250 237 234 231 238 251 252
236 227 212 248 263 284 246 231 235 153 121 94 142 173 161 160 167 161 159 163 167 176 180 184 198 217 217 236 259 275 271 248 251 255 259 258 260 262 269 265 263 265 255 249 240 242 238 245 236
227 224 257 278 284 279 249 232 235 156 148 146 169 172 174 175 162 159 157 161 173 184 185 185 186 205 220 229 244 270 268 259 267 276 274 271 275 275 274 268 267 268 262 246 237 242 257 248 227
255 258 197 217 260 269 270 242 232 206 216 216 217 232 216 172 157 156 160 175 186 181 182 174 178 201 222 223 229 267 264 259 266 273 273 277 282 279 276 277 270 261 252 240 236 244 258 239 235
195 215 221 236 244 251 280 271 298 183 182 204 232 219 200 179 162 164 169 178 175 168 176 187 191 200 219 224 228 246 256 263 272 280 278 275 278 276 271 268 266 262 257 245 240 241 250 231 238
212 214 199 216 247 236 264 275 351 47 112 152 248 275 218 180 164 161 167 173 175 184 197 197 197 206 216 219 229 241 239 249 265 277 287 287 285 282 275 273 267 263 256 247 245 245 246 224 230
Height
1489 1491 1493 1496 1497 1497 1492 1480 1473 1476 1478 1482 1484 1485 1487 1491 1495 1506 1506 1505 1504 1504 1505 1506 1507 1508 1509 1510 1510 1511 1512 1512 1513 1513 1513 1514 1514 1514 1514 1514 1514 1514 1515 1515 1515 1515 1515 1515 1515
1489 1491 1495 1495 1496 1497 1488 1477 1476 1478 1481 1484 1486 1487 1489 1494 1497 1501 1503 1504 1504 1504 1505 1506 1507 1508 1509 1509 1510 1511 1511 1512 1512 1513 1513 1513 1513 1513 1513 1513 1514 1514 1514 1514 1514 1514 1514 1515 1515
1489 1491 1494 1491 1490 1490 1482 1475 1477 1480 1482 1485 1487 1489 1492 1496 1499 1500 1502 1503 1503 1504 1504 1505 1506 1507 1508 1509 1510 1510 1511 1511 1512 1512 1512 1512 1513 1513 1513 1513 1513 1513 1513 1513 1514 1514 1514 1514 1514
1491 1493 1492 1491 1487 1479 1476 1476 1477 1481 1484 1486 1488 1491 1494 1498 1499 1500 1501 1503 1503 1503 1504 1505 1506 1507 1508 1508 1509 1509 1510 1510 1511 1511 1511 1512 1512 1512 1512 1512 1512 1512 1513 1513 1513 1513 1513 1513 1513
1491 1491 1490 1489 1483 1478 1476 1477 1479 1481 1484 1486 1488 1490 1495 1498 1498 1499 1501 1502 1503 1503 1503 1504 1505 1506 1507 1507 1508 1508 1509 1509 1510 1510 1510 1510 1511 1511 1511 1511 1511 1511 1512 1512 1512 1512 1512 1512 1512
1492 1488 1490 1488 1480 1477 1477 1478 1480 1482 1484 1486 1488 1490 1495 1497 1498 1499 1500 1501 1502 1502 1503 1503 1504 1505 1506 1506 1507 1507 1508 1508 1509 1509 1509 1509 1509 1509 1510 1510 1510 1510 1511 1511 1511 1511 1511 1511 1511
1491 1488 1486 1481 1479 1478 1478 1479 1481 1483 1484 1487 1488 1490 1494 1496 1497 1498 1499 1501 1501 1502 1502 1502 1503 1504 1505 1505 1506 1506 1507 1507 1507 1508 1508 1508 1508 1508 1508 1509 1509 1509 1509 1509 1509 1509 1509 1509 1509
1489 1488 1483 1480 1479 1479 1479 1480 1483 1485 1486 1488 1489 1490 1493 1495 1496 1497 1499 1500 1500 1501 1501 1502 1502 1503 1503 1504 1504 1505 1505 1506 1506 1506 1506 1506 1507 1507 1507 1507 1507 1508 1508 1508 1508 1508 1508 1508 1508
1489 1491 1486 1481 1480 1480 1480 1482 1484 1486 1487 1488 1489 1491 1492 1493 1495 1496 1498 1498 1499 1499 1500 1500 1501 1502 1502 1503 1503 1503 1504 1504 1504 1504 1505 1505 1505 1505 1505 1505 1506 1506 1506 1506 1506 1506 1506 1506 1506
1488 1490 1485 1483 1481 1480 1481 1483 1485 1486 1487 1488 1490 1491 1491 1492 1494 1495 1496 1496 1497 1497 1498 1499 1499 1500 1501 1501 1501 1501 1502 1502 1502 1502 1503 1503 1503 1503 1503 1503 1504 1504 1504 1504 1504 1504 1504 1504 1504
1486 1486 1484 1484 1483 1482 1483 1484 1485 1486 1487 1487 1488 1489 1490 1491 1492 1493 1494 1495 1495 1496 1497 1497 1498 1498 1499 1499 1499 1499 1499 1500 1500 1500 1501 1501 1501 1501 1501 1501 1501 1501 1501 1501 1501 1501 1501 1501 1501
1486 1485 1484 1484 1484 1484 1485 1485 1485 1485 1486 1486 1486 1487 1488 1489 1490 1491 1492 1493 1493 1493 1494 1495 1496 1496 1497 1497 1497 1497 1497 1497 1498 1498 1498 1499 1499 1499 1499 1499 1499 1499 1499 1498 1498 1498 1498 1498 1499
1485 1485 1485 1485 1485 1485 1485 1485 1486 1484 1485 1485 1485 1486 1486 1487 1488 1490 1490 1491 1491 1491 1492 1493 1493 1494 1494 1494 1495 1495 1495 1495 1495 1495 1496 1496 1496 1496 1497 1497 1497 1496 1496 1496 1496 1495 1495 1495 1496
1484 1484 1484 1484 1484 1484 1485 1484 1485 1481 1482 1483 1483 1484 1485 1485 1486 1487 1488 1488 1489 1489 1490 1490 1491 1491 1492 1492 1492 1492 1492 1493 1493 1493 1493 1494 1494 1494 1494 1494 1494 1494 1494 1494 1493 1493 1493 1492 1492
1485 1485 1483 1482 1482 1483 1485 1483 1480 1478 1480 1481 1481 1481 1482 1483 1484 1484 1485 1485 1486 1487 1487 1488 1488 1489 1489 1489 1489 1489 1490 1490 1490 1490 1491 1491 1491 1491 1491 1491 1491 1491 1491 1491 1491 1490 1490 1490 1489
1484 1484 1483 1478 1478 1480 1486 1483 1476 1476 1477 1478 1478 1479 1479 1480 1481 1481 1482 1483 1484 1484 1484 1485 1485 1486 1486 1486 1486 1487 1487 1487 1487 1488 1488 1488 1488 1488 1488 1488 1488 1488 1488 1488 1487 1487 1487 1487 1486
1483 1483 1479 1477 1475 1476 1480 1479 1474 1473 1474 1475 1475 1476 1476 1477 1478 1478 1479 1480 1480 1481 1482 1482 1482 1482 1483 1483 1483 1484 1484 1484 1484 1485 1485 1485 1485 1485 1485 1484 1484 1484 1484 1484 1484 1484 1484 1483 1483
1484 1481 1477 1476 1474 1475 1477 1475 1472 1471 1471 1471 1472 1473 1473 1474 1475 1475 1476 1477 1477 1478 1479 1479 1479 1479 1480 1480 1480 1480 1481 1481 1481 1482 1482 1482 1482 1481 1481 1481 1480 1481 1481 1481 1480 1480 1480 1480 1480
1479 1479 1479 1474 1472 1475 1474 1471 1469 1467 1468 1468 1468 1469 1470 1471 1472 1473 1473 1474 1474 1475 1475 1476 1476 1477 1477 1477 1477 1477 1477 1478 1478 1478 1478 1478 1478 1478 1477 1477 1477 1477 1477 1476 1476 1476 1476 1477 1477
1479 1480 1478 1474 1472 1473 1472 1468 1464 1462 1462 1463 1464 1465 1467 1468 1469 1469 1470 1470 1471 1472 1472 1473 1473 1473 1474 1474 1474 1474 1474 1474 1475 1475 1475 1475 1475 1474 1473 1473 1473 1472 1472 1472 1472 1473 1473 1474 1475
1478 1479 1478 1478 1474 1472 1473 1468 1459 1456 1457 1459 1461 1462 1463 1464 1465 1466 1466 1467 1467 1468 1469 1469 1470 1470 1471 1471 1471 1471 1471 1471 1471 1471 1471 1471 1471 1470 1470 1470 1469 1469 1468 1468 1469 1469 1470 1470 1471
1479 1476 1477 1477 1481 1479 1474 1477 1457 1454 1455 1455 1457 1458 1460 1461 1462 1463 1463 1464 1464 1465 1466 1466 1467 1467 1468 1468 1467 1467 1467 1467 1467 1467 1467 1467 1467 1467 1466 1466 1465 1465 1465 1465 1466 1466 1467 1468 1468
1477 1476 1477 1477 1479 1479 1473 1477 1461 1451 1454 1453 1454 1455 1457 1458 1459 1459 1460 1460 1461 1462 1463 1463 1464 1464 1464 1465 1464 1464 1464 1464 1464 1464 1464 1463 1463 1463 1462 1462 1462 1461 1461 1462 1462 1463 1464 1465 1465
1477 1477 1475 1476 1480 1483 1469 1472 1462 1452 1449 1449 1450 1452 1454 1455 1456 1457 1457 1458 1458 1459 1459 1460 1460 1461 1461 1461 1461 1461 1461 1461 1461 1460 1460 1460 1459 1459 1459 1459 1458 1458 1458 1459 1459 1460 1460 1461 1462
1478 1481 1484 1483 1483 1475 1460 1462 1458 1445 1444 1445 1447 1449 1451 1452 1453 1454 1454 1454 1455 1455 1456 1456 1457 1457 1458 1458 1458 1458 1458 1458 1457 1457 1457 1457 1456 1456 1455 1455 1455 1455 1455 1456 1456 1456 1457 1457 1458
1477 1478 1486 1486 1478 1468 1460 1461 1451 1443 1443 1443 1445 1447 1449 1450 1450 1451 1451 1451 1452 1452 1453 1453 1454 1454 1454 1454 1454 1455 1455 1454 1454 1454 1454 1454 1453 1453 1453 1452 1452 1452 1452 1452 1452 1453 1453 1453 1454
1477 1478 1476 1481 1478 1477 1462 1451 1444 1442 1443 1443 1444 1445 1446 1447 1448 1448 1449 1449 1449 1450 1450 1450 1451 1451 1451 1451 1451 1451 1451 1451 1451 1451 1451 1451 1450 1450 1450 1449 1449 1448 1449 1448 1448 1449 1449 1449 1450
1475 1475 1480 1482 1481 1475 1457 1449 1447 1443 1443 1442 1442 1442 1443 1444 1445 1446 1446 1447 1447 1448 1448 1448 1448 1448 1448 1448 1448 1448 1448 1448 1448 1448 1448 1447 1447 1447 1446 1446 1445 1445 1445 1445 1445 1445 1446 1446 1446
1476 1476 1475 1476 1474 1475 1467 1453 1437 1437 1438 1440 1440 1440 1441 1442 1443 1444 1444 1445 1445 1445 1445 1445 1445 1445 1445 1445 1445 1445 1445 1445 1445 1445 1444 1444 1444 1443 1443 1443 1442 1442 1442 1442 1442 1442 1442 1442 1442
1469 1471 1474 1480 1475 1470 1469 1457 1437 1437 1436 1437 1439 1439 1439 1440 1441 1441 1442 1442 1442 1442 1442 1442 1442 1442 1442 1442 1442 1442 1442 1442 1442 1442 1442 1441 1441 1440 1439 1439 1439 1439 1438 1438 1438 1438 1438 1439 1439